Terminal Aerodrome Forecast
Issued by NWS

Home | Current Version | Previous Version | Text Only | Print | Product List | Glossary On
Versions: 1 2 3 4 5 6 7 8 9 10 11 12 13 14 15 16 17 18 19 20 21 22 23 24
000
FTUS43 KDVN 281720
TAFCID
TAF
KCID 281720Z 2818/2918 20015G22KT P6SM SCT030
      TEMPO 2819/2821 VRB20G35KT 2SM TSRA BR BKN025CB
     FM282200 23009KT P6SM SCT020 BKN035
     FM290900 26009KT 5SM BR SCT020 SCT035=

USA.gov is the U.S. government's official web portal to all federal, state and local government web resources and services.